Total_Precipitation_Accumulation
0.11 0.18 0.46 0.54 0.51 0.49 0.47 0.47 0.48 0.44 0.43 0.47 0.47 0.47 0.48 0.45 0.39 0.32 0.32 0.36 0.39 0.50 0.57 0.57 0.57 0.58 0.54 0.52 0.50 0.33 0.24 0.19 0.16 0.14 0.15 0.21 0.24 0.23 0.17 0.16 0.18 0.20 0.22
0.10 0.18 0.43 0.57 0.62 0.58 0.55 0.49 0.47 0.41 0.43 0.47 0.52 0.55 0.56 0.51 0.41 0.37 0.37 0.38 0.45 0.55 0.58 0.59 0.48 0.43 0.39 0.38 0.31 0.19 0.14 0.09 0.07 0.05 0.05 0.08 0.14 0.18 0.16 0.15 0.16 0.21 0.23
0.12 0.23 0.43 0.58 0.68 0.66 0.63 0.58 0.49 0.42 0.42 0.45 0.52 0.61 0.61 0.55 0.50 0.46 0.45 0.44 0.49 0.55 0.52 0.49 0.41 0.32 0.27 0.22 0.17 0.12 0.08 0.05 0.05 0.04 0.05 0.07 0.11 0.17 0.18 0.15 0.19 0.22 0.20
0.16 0.27 0.44 0.65 0.77 0.76 0.67 0.62 0.56 0.49 0.47 0.50 0.50 0.57 0.59 0.57 0.56 0.49 0.48 0.48 0.48 0.46 0.41 0.37 0.32 0.25 0.22 0.15 0.12 0.09 0.06 0.04 0.03 0.04 0.05 0.08 0.10 0.20 0.25 0.22 0.23 0.23 0.21
0.23 0.35 0.54 0.75 0.88 0.89 0.79 0.73 0.66 0.59 0.56 0.58 0.57 0.57 0.59 0.60 0.59 0.57 0.55 0.53 0.47 0.36 0.34 0.33 0.27 0.23 0.19 0.14 0.12 0.10 0.08 0.06 0.03 0.04 0.07 0.10 0.13 0.27 0.27 0.26 0.27 0.29 0.27
0.39 0.54 0.68 0.83 0.94 0.96 0.91 0.86 0.84 0.77 0.67 0.71 0.69 0.63 0.66 0.64 0.62 0.65 0.60 0.50 0.43 0.35 0.31 0.28 0.26 0.23 0.19 0.14 0.12 0.11 0.10 0.06 0.04 0.04 0.07 0.11 0.17 0.35 0.32 0.28 0.31 0.36 0.35
0.59 0.75 0.85 0.95 1.03 1.00 1.00 0.99 0.97 0.97 0.90 0.86 0.81 0.74 0.73 0.70 0.67 0.65 0.61 0.46 0.39 0.37 0.34 0.31 0.28 0.26 0.23 0.16 0.11 0.11 0.10 0.06 0.04 0.05 0.08 0.12 0.20 0.34 0.32 0.28 0.31 0.36 0.35
0.83 0.98 1.08 1.19 1.24 1.15 1.09 1.05 1.06 1.14 1.14 1.08 1.00 0.91 0.81 0.79 0.75 0.66 0.58 0.45 0.39 0.39 0.38 0.37 0.35 0.30 0.28 0.20 0.13 0.11 0.08 0.04 0.03 0.04 0.08 0.12 0.19 0.32 0.30 0.24 0.23 0.26 0.27
1.23 1.31 1.43 1.43 1.37 1.33 1.24 1.17 1.14 1.17 1.23 1.25 1.16 1.06 0.90 0.86 0.81 0.68 0.56 0.52 0.44 0.44 0.40 0.37 0.37 0.34 0.31 0.25 0.15 0.11 0.07 0.03 0.02 0.05 0.08 0.12 0.21 0.37 0.33 0.26 0.24 0.25 0.24
1.72 1.75 1.81 1.78 1.62 1.50 1.39 1.28 1.23 1.19 1.25 1.31 1.23 1.01 0.83 0.79 0.79 0.69 0.52 0.54 0.50 0.45 0.41 0.37 0.37 0.36 0.29 0.24 0.17 0.12 0.07 0.04 0.04 0.07 0.10 0.13 0.21 0.34 0.33 0.27 0.27 0.28 0.26
2.17 2.11 2.03 2.02 1.94 1.78 1.64 1.42 1.36 1.30 1.30 1.26 1.16 0.99 0.86 0.84 0.78 0.69 0.48 0.43 0.47 0.43 0.41 0.39 0.35 0.35 0.26 0.19 0.16 0.11 0.08 0.06 0.07 0.09 0.11 0.12 0.21 0.27 0.28 0.27 0.25 0.27 0.29
2.30 2.30 2.23 2.18 2.19 2.08 1.87 1.73 1.60 1.42 1.33 1.25 1.09 0.99 0.94 0.86 0.79 0.67 0.55 0.45 0.47 0.43 0.43 0.42 0.37 0.33 0.27 0.20 0.19 0.15 0.11 0.08 0.08 0.08 0.10 0.11 0.18 0.24 0.24 0.26 0.24 0.24 0.24
2.55 2.64 2.61 2.49 2.53 2.57 2.32 2.03 1.89 1.63 1.44 1.37 1.20 1.10 1.02 0.99 0.91 0.81 0.70 0.57 0.53 0.44 0.42 0.46 0.39 0.29 0.25 0.20 0.19 0.18 0.14 0.12 0.10 0.09 0.11 0.11 0.17 0.24 0.25 0.29 0.27 0.24 0.26
2.73 2.90 3.04 2.92 2.84 2.85 2.65 2.36 2.11 1.88 1.62 1.48 1.40 1.29 1.18 1.08 0.94 0.80 0.71 0.61 0.55 0.47 0.43 0.49 0.43 0.32 0.32 0.25 0.21 0.22 0.20 0.16 0.13 0.12 0.14 0.13 0.14 0.21 0.27 0.32 0.28 0.27 0.28
2.62 2.87 3.17 3.08 2.95 2.86 2.71 2.48 2.16 2.03 1.84 1.63 1.55 1.49 1.32 1.20 1.06 0.90 0.80 0.72 0.63 0.53 0.44 0.45 0.48 0.41 0.40 0.37 0.29 0.24 0.25 0.20 0.17 0.15 0.15 0.15 0.14 0.18 0.24 0.29 0.29 0.30 0.34
2.65 2.77 3.03 3.08 2.89 2.83 2.75 2.51 2.18 1.97 1.87 1.80 1.61 1.45 1.38 1.25 1.16 1.05 0.85 0.73 0.67 0.58 0.48 0.42 0.43 0.45 0.42 0.40 0.35 0.30 0.29 0.26 0.21 0.19 0.18 0.18 0.18 0.18 0.21 0.23 0.28 0.36 0.45
2.68 2.83 2.88 3.02 3.02 2.80 2.75 2.56 2.28 2.17 1.98 1.83 1.71 1.48 1.38 1.28 1.19 1.14 0.96 0.76 0.68 0.66 0.61 0.53 0.51 0.50 0.45 0.39 0.34 0.32 0.32 0.29 0.24 0.22 0.21 0.20 0.18 0.17 0.20 0.22 0.24 0.32 0.45
2.71 2.88 2.88 2.87 2.97 2.92 2.77 2.64 2.32 2.16 2.13 1.92 1.80 1.64 1.46 1.38 1.32 1.27 1.15 0.93 0.89 0.88 0.81 0.69 0.61 0.55 0.47 0.43 0.37 0.36 0.34 0.32 0.26 0.24 0.23 0.22 0.19 0.17 0.20 0.23 0.25 0.28 0.37
2.63 2.85 2.97 2.92 2.88 3.02 2.96 2.80 2.63 2.35 2.14 2.10 2.02 1.79 1.56 1.42 1.36 1.29 1.20 1.14 1.13 1.06 0.96 0.83 0.72 0.64 0.53 0.49 0.45 0.42 0.42 0.40 0.33 0.29 0.28 0.27 0.25 0.23 0.23 0.25 0.29 0.28 0.28
2.62 2.82 2.98 2.95 2.89 3.08 3.24 3.06 2.80 2.58 2.23 2.01 2.00 1.84 1.66 1.56 1.43 1.33 1.23 1.23 1.28 1.22 1.09 0.99 0.85 0.74 0.66 0.61 0.59 0.49 0.46 0.47 0.41 0.33 0.30 0.28 0.27 0.27 0.26 0.25 0.26 0.26 0.25
2.55 2.71 2.89 2.94 2.89 2.88 2.99 2.94 2.68 2.42 2.25 2.00 1.91 1.91 1.79 1.70 1.71 1.57 1.35 1.33 1.36 1.26 1.15 1.11 1.07 0.97 0.85 0.78 0.73 0.59 0.50 0.44 0.41 0.33 0.28 0.27 0.25 0.26 0.26 0.27 0.26 0.25 0.23
2.25 2.55 2.75 2.90 2.99 2.80 2.63 2.71 2.69 2.56 2.36 2.18 2.06 2.04 1.88 1.77 1.71 1.68 1.63 1.54 1.53 1.47 1.39 1.28 1.24 1.18 1.06 0.99 0.92 0.84 0.64 0.50 0.40 0.34 0.30 0.28 0.26 0.27 0.27 0.27 0.27 0.27 0.25
1.92 2.21 2.48 2.70 2.87 2.95 2.84 2.88 2.81 2.67 2.41 2.14 1.93 1.90 1.89 1.84 1.77 1.67 1.69 1.71 1.69 1.63 1.51 1.44 1.37 1.32 1.28 1.19 1.10 1.12 0.87 0.61 0.46 0.41 0.36 0.32 0.30 0.29 0.30 0.31 0.30 0.30 0.29
1.65 1.87 2.09 2.42 2.68 2.83 2.92 2.81 2.66 2.46 2.19 1.90 1.86 1.96 1.97 1.89 1.81 1.73 1.68 1.70 1.74 1.68 1.60 1.62 1.61 1.44 1.42 1.38 1.31 1.17 1.00 0.80 0.71 0.56 0.45 0.42 0.39 0.35 0.34 0.35 0.33 0.32 0.32
1.45 1.67 1.80 2.01 2.34 2.48 2.45 2.46 2.48 2.34 2.14 2.00 1.93 1.89 1.87 1.79 1.73 1.67 1.64 1.66 1.65 1.65 1.62 1.65 1.69 1.66 1.55 1.48 1.42 1.35 1.29 1.11 0.94 0.86 0.68 0.55 0.53 0.47 0.44 0.44 0.43 0.42 0.39
1.19 1.42 1.60 1.66 1.87 2.09 2.09 2.13 2.21 2.09 1.97 1.88 1.77 1.74 1.75 1.69 1.59 1.53 1.49 1.52 1.55 1.55 1.54 1.58 1.67 1.73 1.71 1.57 1.44 1.32 1.28 1.21 1.07 1.03 0.92 0.72 0.64 0.55 0.52 0.49 0.47 0.49 0.53